STV1 EDGS-EGJJ

Flight info

Callsign STV1
Flight time 1h 19m
Altitude 40000
Route NVO1L NVO DCT NILEM/N0455F390 DCT MATIX DCT KIHVI UN872 PON UT300 ELCOB/N0455F400 UT300 SENLO DCT BEVAV
Aircraft CL60/M-SADE3FGHIJ3J4J7P2RWXY/HB1D1

Departure

Time 2026-04-29 13:03
Airport Siegerland Airport (EDGS)

Arrival

Time 2026-04-29 14:22
Airport Jersey Airport (EGJJ)
Time Latitude Longitude Altitude Speed Heading
2026-04-29 12:20 50.70793 8.07652 1977 ft 0 kts 39°
2026-04-29 12:35 50.70797 8.07657 1976 ft 0 kts 57°
2026-04-29 12:35 50.70797 8.07659 1976 ft 0 kts 61°
2026-04-29 12:42 50.70798 8.07661 1976 ft 1 kts 64°
2026-04-29 12:42 50.70799 8.07665 1976 ft 1 kts 65°
2026-04-29 12:57 50.70799 8.07666 1976 ft 0 kts 65°
2026-04-29 12:58 50.70806 8.07691 1975 ft 6 kts 66°
2026-04-29 12:58 50.70831 8.07717 1975 ft 4 kts 356°
2026-04-29 12:58 50.70868 8.07669 1975 ft 8 kts 308°
2026-04-29 12:58 50.70908 8.07588 1976 ft 10 kts 308°
2026-04-29 12:59 50.70954 8.07494 1978 ft 10 kts 307°
2026-04-29 12:59 50.71008 8.07389 1978 ft 13 kts 308°
2026-04-29 12:59 50.71061 8.07279 1976 ft 12 kts 307°
2026-04-29 12:59 50.71116 8.07202 1972 ft 10 kts 342°
2026-04-29 13:00 50.71180 8.07216 1969 ft 3 kts 32°
2026-04-29 13:00 50.71184 8.07221 1969 ft 0 kts 38°
2026-04-29 13:01 50.71194 8.07233 1968 ft 4 kts 43°
2026-04-29 13:01 50.71215 8.07283 1967 ft 5 kts 63°
2026-04-29 13:01 50.71235 8.07344 1967 ft 6 kts 88°
2026-04-29 13:01 50.71230 8.07360 1967 ft 0 kts 127°
2026-04-29 13:02 50.71227 8.07368 1967 ft 7 kts 127°
2026-04-29 13:02 50.71087 8.07648 1970 ft 68 kts 127°
2026-04-29 13:02 50.70624 8.08589 1957 ft 145 kts 126°
2026-04-29 13:03 50.69933 8.09917 2507 ft 165 kts 124°
2026-04-29 13:03 50.69232 8.11323 3434 ft 164 kts 122°
2026-04-29 13:03 50.68553 8.12601 4210 ft 146 kts 125°
2026-04-29 13:03 50.67913 8.13758 4739 ft 137 kts 121°
2026-04-29 13:04 50.67352 8.14932 5150 ft 136 kts 120°
2026-04-29 13:04 50.66787 8.16132 5529 ft 139 kts 120°
2026-04-29 13:04 50.66095 8.17298 6134 ft 156 kts 146°
2026-04-29 13:04 50.64917 8.17450 6578 ft 198 kts 195°
2026-04-29 13:05 50.63658 8.16240 7098 ft 228 kts 219°
2026-04-29 13:05 50.62590 8.14193 7711 ft 255 kts 242°
2026-04-29 13:05 50.62095 8.11502 8480 ft 269 kts 271°
2026-04-29 13:05 50.62507 8.08663 9374 ft 270 kts 303°
2026-04-29 13:06 50.63519 8.06164 10369 ft 275 kts 307°
2026-04-29 13:06 50.64552 8.03678 11385 ft 279 kts 307°
2026-04-29 13:06 50.65606 8.01114 12428 ft 282 kts 306°
2026-04-29 13:06 50.66533 7.98446 13455 ft 285 kts 300°
2026-04-29 13:07 50.67387 7.95648 14484 ft 285 kts 300°
2026-04-29 13:07 50.68242 7.92845 15503 ft 284 kts 301°
2026-04-29 13:07 50.68245 7.92835 15507 ft 284 kts 301°
2026-04-29 13:08 50.68846 7.90866 16211 ft 283 kts 301°
2026-04-29 13:08 50.69677 7.88135 17186 ft 280 kts 301°
2026-04-29 13:09 50.70514 7.85384 18100 ft 278 kts 301°
2026-04-29 13:09 50.71355 7.82617 19007 ft 275 kts 302°
2026-04-29 13:09 50.72179 7.79901 19865 ft 272 kts 302°
2026-04-29 13:09 50.72979 7.77263 20664 ft 271 kts 302°
2026-04-29 13:10 50.73811 7.74536 21035 ft 287 kts 302°
2026-04-29 13:10 50.74722 7.71562 21118 ft 313 kts 301°
2026-04-29 13:10 50.75680 7.68407 21559 ft 326 kts 301°
2026-04-29 13:10 50.76653 7.65185 22212 ft 331 kts 301°
2026-04-29 13:11 50.77644 7.61894 22816 ft 339 kts 301°
2026-04-29 13:11 50.78413 7.58239 22831 ft 371 kts 283°
2026-04-29 13:11 50.78650 7.54008 22822 ft 397 kts 278°
2026-04-29 13:11 50.78844 7.49550 22853 ft 417 kts 278°
2026-04-29 13:12 50.79046 7.44928 23098 ft 430 kts 278°
2026-04-29 13:12 50.79250 7.40208 23519 ft 438 kts 278°
2026-04-29 13:12 50.79454 7.35413 24092 ft 442 kts 278°
2026-04-29 13:12 50.79662 7.30474 24628 ft 447 kts 277°
2026-04-29 13:13 50.79867 7.25587 25122 ft 452 kts 277°
2026-04-29 13:13 50.80073 7.20627 25588 ft 457 kts 277°
2026-04-29 13:13 50.80278 7.15629 26068 ft 460 kts 277°
2026-04-29 13:13 50.80485 7.10557 26485 ft 465 kts 277°
2026-04-29 13:14 50.80690 7.05462 26933 ft 468 kts 277°
2026-04-29 13:14 50.80896 7.00315 27348 ft 472 kts 277°
2026-04-29 13:14 50.81099 6.95180 27739 ft 475 kts 277°
2026-04-29 13:14 50.81303 6.89963 28088 ft 479 kts 277°
2026-04-29 13:15 50.81505 6.84718 28454 ft 483 kts 277°
2026-04-29 13:15 50.81709 6.79373 28810 ft 486 kts 277°
2026-04-29 13:15 50.81909 6.74064 29320 ft 485 kts 277°
2026-04-29 13:15 50.82106 6.68762 29777 ft 485 kts 277°
2026-04-29 13:16 50.82033 6.63429 30002 ft 495 kts 265°
2026-04-29 13:16 50.81218 6.58150 30173 ft 502 kts 255°
2026-04-29 13:16 50.80175 6.52896 30359 ft 507 kts 254°
2026-04-29 13:16 50.79116 6.47529 30565 ft 510 kts 255°
2026-04-29 13:17 50.78063 6.42208 30827 ft 512 kts 254°
2026-04-29 13:17 50.77008 6.36892 31112 ft 512 kts 255°
2026-04-29 13:17 50.75935 6.31495 31422 ft 512 kts 253°
2026-04-29 13:17 50.74873 6.26170 31762 ft 510 kts 253°
2026-04-29 13:18 50.73803 6.20826 32095 ft 509 kts 253°
2026-04-29 13:18 50.72752 6.15583 32433 ft 507 kts 253°
2026-04-29 13:18 50.71690 6.10302 32701 ft 507 kts 253°
2026-04-29 13:18 50.70615 6.04976 33049 ft 505 kts 253°
2026-04-29 13:19 50.69555 5.99733 33327 ft 504 kts 253°
2026-04-29 13:19 50.68495 5.94502 33660 ft 502 kts 253°
2026-04-29 13:19 50.67439 5.89307 33948 ft 500 kts 253°
2026-04-29 13:19 50.66383 5.84126 34266 ft 498 kts 253°
2026-04-29 13:20 50.65326 5.78956 34534 ft 497 kts 253°
2026-04-29 13:20 50.64276 5.73832 34820 ft 496 kts 253°
2026-04-29 13:20 50.63218 5.68682 34917 ft 498 kts 253°
2026-04-29 13:20 50.62148 5.63487 35260 ft 493 kts 253°
2026-04-29 13:21 50.61101 5.58417 35630 ft 488 kts 253°
2026-04-29 13:21 50.60060 5.53388 35959 ft 484 kts 253°
2026-04-29 13:21 50.59026 5.48404 36148 ft 484 kts 253°
2026-04-29 13:21 50.57988 5.43419 36365 ft 481 kts 254°
2026-04-29 13:22 50.56947 5.38428 36718 ft 477 kts 254°
2026-04-29 13:22 50.55926 5.33542 36941 ft 476 kts 253°
2026-04-29 13:22 50.54882 5.28563 37132 ft 476 kts 253°
2026-04-29 13:22 50.53862 5.23705 37421 ft 473 kts 253°
2026-04-29 13:23 50.52832 5.18819 37565 ft 474 kts 253°
2026-04-29 13:23 50.50754 5.08985 37770 ft 475 kts 253°
2026-04-29 13:23 50.49721 5.04117 37973 ft 472 kts 253°
2026-04-29 13:24 50.48682 4.99231 38225 ft 469 kts 253°
2026-04-29 13:24 50.47657 4.94426 38379 ft 467 kts 253°
2026-04-29 13:24 50.46636 4.89649 38564 ft 466 kts 253°
2026-04-29 13:24 50.45609 4.84851 38727 ft 465 kts 253°
2026-04-29 13:25 50.44569 4.80011 38842 ft 464 kts 253°
2026-04-29 13:25 50.42509 4.70447 39002 ft 466 kts 253°
2026-04-29 13:25 50.41479 4.65682 39152 ft 464 kts 253°
2026-04-29 13:26 50.39407 4.56134 39378 ft 462 kts 253°
2026-04-29 13:26 50.37342 4.46663 39479 ft 462 kts 253°
2026-04-29 13:27 50.36312 4.41955 39681 ft 460 kts 253°
2026-04-29 13:27 50.35274 4.37220 39741 ft 460 kts 253°
2026-04-29 13:27 50.34239 4.32508 39917 ft 457 kts 252°
2026-04-29 13:27 50.33201 4.27797 39944 ft 457 kts 252°
2026-04-29 13:28 50.30757 4.18731 40128 ft 456 kts 242°
2026-04-29 13:28 50.27066 4.10699 40224 ft 458 kts 228°
2026-04-29 13:29 50.22256 4.04214 40170 ft 461 kts 215°
2026-04-29 13:29 50.16940 3.98730 40170 ft 462 kts 214°
2026-04-29 13:30 50.11615 3.93179 40182 ft 459 kts 218°
2026-04-29 13:30 50.07052 3.86332 40226 ft 457 kts 231°
2026-04-29 13:31 50.02945 3.78814 40120 ft 459 kts 231°
2026-04-29 13:31 49.98846 3.71343 40155 ft 456 kts 231°
2026-04-29 13:32 49.94746 3.63893 40123 ft 453 kts 231°
2026-04-29 13:32 49.90696 3.56552 40150 ft 453 kts 231°
2026-04-29 13:33 49.86612 3.49173 40143 ft 451 kts 231°
2026-04-29 13:33 49.82549 3.41850 40150 ft 450 kts 231°
2026-04-29 13:34 49.78477 3.34533 40162 ft 451 kts 231°
2026-04-29 13:34 49.74396 3.27221 40173 ft 451 kts 231°
2026-04-29 13:35 49.70302 3.19906 40154 ft 449 kts 231°
2026-04-29 13:35 49.66217 3.12627 40141 ft 449 kts 231°
2026-04-29 13:36 49.62143 3.05388 40118 ft 449 kts 231°
2026-04-29 13:36 49.58065 2.98161 40127 ft 448 kts 231°
2026-04-29 13:37 49.53997 2.90972 40122 ft 447 kts 231°
2026-04-29 13:37 49.49932 2.83810 40112 ft 446 kts 231°
2026-04-29 13:38 49.45872 2.76674 40124 ft 445 kts 230°
2026-04-29 13:38 49.41813 2.69561 40110 ft 443 kts 231°
2026-04-29 13:39 49.37774 2.62501 40118 ft 441 kts 231°
2026-04-29 13:39 49.33734 2.55459 40102 ft 439 kts 231°
2026-04-29 13:40 49.29710 2.48463 40106 ft 438 kts 231°
2026-04-29 13:40 49.25699 2.41508 40087 ft 437 kts 230°
2026-04-29 13:41 49.21686 2.34569 40113 ft 437 kts 230°
2026-04-29 13:41 49.18269 2.27044 40113 ft 433 kts 242°
2026-04-29 13:42 49.15321 2.19033 40103 ft 433 kts 241°
2026-04-29 13:42 49.12351 2.11004 40104 ft 433 kts 241°
2026-04-29 13:43 49.09905 2.02715 40091 ft 430 kts 254°
2026-04-29 13:43 49.08864 1.93821 40101 ft 429 kts 263°
2026-04-29 13:44 49.08179 1.84833 40098 ft 429 kts 263°
2026-04-29 13:44 49.07481 1.75811 40083 ft 429 kts 262°
2026-04-29 13:45 49.06777 1.66821 40087 ft 429 kts 263°
2026-04-29 13:45 49.06064 1.57797 40084 ft 429 kts 262°
2026-04-29 13:46 49.05350 1.48861 40077 ft 429 kts 262°
2026-04-29 13:46 49.04625 1.39871 40102 ft 429 kts 262°
2026-04-29 13:47 49.03889 1.30844 40111 ft 430 kts 261°
2026-04-29 13:47 49.03225 1.21852 40099 ft 431 kts 266°
2026-04-29 13:48 49.03443 1.12714 40101 ft 433 kts 270°
2026-04-29 13:48 49.03728 1.03591 40105 ft 434 kts 270°
2026-04-29 13:49 49.04004 0.94463 40098 ft 435 kts 270°
2026-04-29 13:49 49.04274 0.85282 40066 ft 433 kts 270°
2026-04-29 13:50 49.04534 0.76182 40057 ft 433 kts 270°
2026-04-29 13:50 49.04787 0.67008 40072 ft 433 kts 270°
2026-04-29 13:51 49.05031 0.57905 40068 ft 434 kts 270°
2026-04-29 13:51 49.05268 0.48753 40057 ft 435 kts 270°
2026-04-29 13:52 49.05500 0.39522 40054 ft 436 kts 270°
2026-04-29 13:52 49.05724 0.30336 40050 ft 437 kts 269°
2026-04-29 13:53 49.05940 0.21121 40062 ft 438 kts 269°
2026-04-29 13:53 49.06150 0.11888 40056 ft 439 kts 269°
2026-04-29 13:54 49.06353 0.02610 40054 ft 439 kts 269°
2026-04-29 13:54 49.06549 -0.06671 40056 ft 439 kts 269°
2026-04-29 13:55 49.06737 -0.15944 40056 ft 440 kts 269°
2026-04-29 13:55 49.06917 -0.25222 40050 ft 441 kts 268°
2026-04-29 13:56 49.07092 -0.34625 39423 ft 455 kts 269°
2026-04-29 13:56 49.07180 -0.39447 38857 ft 452 kts 269°
2026-04-29 13:56 49.07265 -0.44178 38305 ft 449 kts 269°
2026-04-29 13:57 49.07348 -0.48895 37688 ft 446 kts 269°
2026-04-29 13:57 49.07428 -0.53583 37171 ft 446 kts 269°
2026-04-29 13:57 49.07507 -0.58320 36585 ft 447 kts 269°
2026-04-29 13:57 49.07557 -0.61452 36218 ft 450 kts 269°
2026-04-29 13:58 49.07655 -0.67627 35364 ft 450 kts 269°
2026-04-29 13:58 49.07729 -0.72422 34754 ft 452 kts 269°
2026-04-29 13:58 49.07800 -0.77203 34126 ft 452 kts 269°
2026-04-29 13:58 49.07869 -0.81946 33551 ft 453 kts 269°
2026-04-29 13:59 49.07937 -0.86718 32972 ft 452 kts 269°
2026-04-29 13:59 49.08003 -0.91501 32355 ft 448 kts 268°
2026-04-29 13:59 49.08066 -0.96135 31781 ft 442 kts 268°
2026-04-29 13:59 49.08127 -1.00772 31180 ft 436 kts 268°
2026-04-29 14:00 49.08186 -1.05340 30639 ft 429 kts 268°
2026-04-29 14:00 49.08242 -1.09887 30048 ft 423 kts 268°
2026-04-29 14:00 49.08294 -1.14275 29499 ft 418 kts 268°
2026-04-29 14:00 49.08302 -1.18698 28955 ft 413 kts 265°
2026-04-29 14:01 49.08180 -1.23025 28407 ft 412 kts 264°
2026-04-29 14:01 49.08046 -1.27391 27874 ft 411 kts 264°
2026-04-29 14:01 49.07914 -1.31670 27318 ft 410 kts 264°
2026-04-29 14:01 49.07779 -1.35991 26750 ft 409 kts 263°
2026-04-29 14:02 49.07642 -1.40340 26209 ft 406 kts 263°
2026-04-29 14:02 49.07507 -1.44567 25689 ft 404 kts 263°
2026-04-29 14:02 49.07369 -1.48831 25160 ft 402 kts 263°
2026-04-29 14:02 49.07229 -1.53092 24627 ft 400 kts 263°
2026-04-29 14:03 49.07091 -1.57286 24080 ft 399 kts 263°
2026-04-29 14:03 49.06950 -1.61515 23562 ft 397 kts 263°
2026-04-29 14:03 49.06810 -1.65674 23035 ft 397 kts 262°
2026-04-29 14:03 49.06736 -1.69854 22525 ft 396 kts 268°
2026-04-29 14:04 49.06897 -1.74045 21998 ft 396 kts 270°
2026-04-29 14:04 49.07081 -1.78248 21467 ft 395 kts 269°
2026-04-29 14:04 49.07257 -1.82372 20912 ft 394 kts 269°
2026-04-29 14:04 49.07433 -1.86509 20402 ft 391 kts 270°
2026-04-29 14:05 49.07526 -1.88739 20124 ft 391 kts 270°
2026-04-29 14:05 49.07683 -1.92506 19687 ft 390 kts 270°
2026-04-29 14:05 49.07852 -1.96599 19169 ft 389 kts 270°
2026-04-29 14:05 49.08020 -2.00716 18668 ft 388 kts 270°
2026-04-29 14:06 49.08186 -2.04810 18125 ft 388 kts 270°
2026-04-29 14:06 49.08350 -2.08879 17647 ft 384 kts 271°
2026-04-29 14:06 49.08510 -2.12906 17127 ft 385 kts 270°
2026-04-29 14:06 49.08670 -2.16959 16623 ft 383 kts 271°
2026-04-29 14:07 49.08828 -2.21006 16117 ft 382 kts 271°
2026-04-29 14:07 49.08982 -2.25005 15577 ft 383 kts 271°
2026-04-29 14:07 49.09138 -2.29040 15225 ft 376 kts 270°
2026-04-29 14:07 49.09287 -2.32989 14590 ft 379 kts 271°
2026-04-29 14:08 49.09438 -2.36963 14071 ft 371 kts 270°
2026-04-29 14:08 49.09584 -2.40828 13613 ft 358 kts 270°
2026-04-29 14:08 49.09723 -2.44543 13147 ft 349 kts 271°
2026-04-29 14:08 49.09861 -2.48184 12657 ft 342 kts 271°
2026-04-29 14:09 49.09913 -2.51719 12254 ft 329 kts 260°
2026-04-29 14:09 49.09463 -2.55057 11790 ft 320 kts 251°
2026-04-29 14:09 49.08894 -2.58315 11222 ft 318 kts 251°
2026-04-29 14:09 49.08311 -2.61564 10669 ft 316 kts 251°
2026-04-29 14:10 49.07728 -2.64745 10145 ft 313 kts 251°
2026-04-29 14:10 49.07144 -2.67907 9577 ft 310 kts 250°
2026-04-29 14:10 49.06567 -2.71036 9022 ft 309 kts 250°
2026-04-29 14:10 49.06119 -2.74251 8433 ft 311 kts 266°
2026-04-29 14:11 49.06508 -2.77435 7866 ft 310 kts 297°
2026-04-29 14:11 49.07816 -2.79818 7842 ft 281 kts 330°
2026-04-29 14:11 49.09524 -2.80794 7843 ft 248 kts
2026-04-29 14:11 49.11071 -2.80299 7652 ft 219 kts 40°
2026-04-29 14:12 49.12047 -2.78706 7368 ft 201 kts 66°
2026-04-29 14:12 49.12732 -2.76880 7102 ft 200 kts 61°
2026-04-29 14:12 49.13682 -2.75296 6809 ft 204 kts 51°
2026-04-29 14:12 49.14733 -2.73827 6534 ft 203 kts 50°
2026-04-29 14:13 49.15757 -2.72379 6229 ft 200 kts 56°
2026-04-29 14:13 49.16466 -2.70664 5992 ft 185 kts 76°
2026-04-29 14:13 49.16750 -2.68834 5922 ft 169 kts 86°
2026-04-29 14:13 49.16855 -2.67091 5688 ft 165 kts 89°
2026-04-29 14:14 49.16927 -2.65357 5436 ft 163 kts 89°
2026-04-29 14:14 49.17027 -2.63642 5181 ft 162 kts 88°
2026-04-29 14:14 49.17164 -2.61922 4918 ft 161 kts 86°
2026-04-29 14:14 49.17313 -2.60238 4649 ft 160 kts 86°
2026-04-29 14:15 49.17465 -2.58582 4402 ft 158 kts 86°
2026-04-29 14:15 49.17613 -2.56911 4081 ft 160 kts 86°
2026-04-29 14:15 49.17741 -2.55237 3802 ft 159 kts 86°
2026-04-29 14:15 49.17877 -2.53563 3521 ft 159 kts 86°
2026-04-29 14:16 49.18035 -2.51873 3252 ft 158 kts 85°
2026-04-29 14:16 49.18195 -2.50208 3009 ft 155 kts 85°
2026-04-29 14:16 49.18332 -2.48623 3007 ft 148 kts 87°
2026-04-29 14:16 49.18447 -2.47016 3052 ft 154 kts 86°
2026-04-29 14:17 49.18587 -2.45329 3060 ft 156 kts 85°
2026-04-29 14:17 49.18747 -2.43670 3038 ft 156 kts 84°
2026-04-29 14:17 49.18902 -2.42002 2989 ft 154 kts 85°
2026-04-29 14:17 49.19046 -2.40361 2845 ft 155 kts 84°
2026-04-29 14:18 49.19230 -2.38735 2643 ft 153 kts 83°
2026-04-29 14:18 49.19382 -2.37148 2427 ft 144 kts 84°
2026-04-29 14:18 49.19492 -2.35623 2119 ft 137 kts 86°
2026-04-29 14:18 49.19566 -2.34267 1943 ft 115 kts 85°
2026-04-29 14:19 49.19603 -2.33160 1817 ft 94 kts 87°
2026-04-29 14:19 49.19621 -2.32134 1664 ft 94 kts 88°
2026-04-29 14:19 49.19669 -2.31142 1544 ft 93 kts 84°
2026-04-29 14:19 49.19775 -2.30158 1399 ft 96 kts 79°
2026-04-29 14:20 49.19866 -2.29134 1323 ft 97 kts 82°
2026-04-29 14:20 49.19975 -2.28112 1260 ft 98 kts 81°
2026-04-29 14:20 49.20116 -2.27093 1163 ft 99 kts 79°
2026-04-29 14:20 49.20250 -2.26049 993 ft 100 kts 80°
2026-04-29 14:21 49.20340 -2.25000 839 ft 102 kts 81°
2026-04-29 14:21 49.20412 -2.23916 715 ft 102 kts 84°
2026-04-29 14:21 49.20492 -2.22806 620 ft 109 kts 81°
2026-04-29 14:21 49.20621 -2.21710 450 ft 101 kts 83°
2026-04-29 14:22 49.20711 -2.20568 291 ft 110 kts 79°
2026-04-29 14:22 49.20799 -2.19509 274 ft 80 kts 83°
2026-04-29 14:22 49.20844 -2.18945 273 ft 31 kts 84°
2026-04-29 14:22 49.20867 -2.18685 271 ft 18 kts 82°
2026-04-29 14:23 49.20876 -2.18542 271 ft 7 kts 85°
2026-04-29 14:23 49.20878 -2.18468 271 ft 9 kts 89°
2026-04-29 14:23 49.20842 -2.18378 273 ft 10 kts 166°
2026-04-29 14:23 49.20770 -2.18410 272 ft 10 kts 219°
2026-04-29 14:24 49.20727 -2.18533 268 ft 17 kts 264°
2026-04-29 14:24 49.20710 -2.18749 268 ft 21 kts 263°
2026-04-29 14:24 49.20696 -2.18933 268 ft 16 kts 263°
2026-04-29 14:24 49.20679 -2.19114 269 ft 14 kts 264°
2026-04-29 14:25 49.20655 -2.19205 271 ft 8 kts 185°
2026-04-29 14:25 49.20621 -2.19218 270 ft 3 kts 281°
2026-04-29 14:25 49.20626 -2.19226 270 ft 0 kts 339°